Regional Weather Roundup
Issued by NWS

Home | Current Version | Previous Version | Graphics & Text | Print | Product List | Glossary On
Versions: 1 2 3 4 5 6 7 8 9 10 11 12 13 14 15 16 17 18 19 20 21 22 23 24 25 26 27 28 29 30 31 32 33 34 35 36 37 38 39 40 41 42 43 44 45 46 47 48 49 50
000
ASUS43 KLOT 030500
RWRIL

ILLINOIS REGIONAL WEATHER ROUNDUP
NATIONAL WEATHER SERVICE CHICAGO/ROMEOVILLE IL
1200 AM CDT MON AUG 03 2015

NOTE: "FAIR" INDICATES FEW OR NO CLOUDS BELOW 12,000 FEET WITH NO
SIGNIFICANT WEATHER AND/OR OBSTRUCTIONS TO VISIBILITY.

* THESE STATIONS ARE NOT UNDER NWS QUALITY CONTROL. THEY ALSO MAY NOT
  REPORT WEATHER SUCH AS PRECIPITATION OR FOG.

ILZ001-002-007-009-015-016-024-030600-
NORTHWEST ILLINOIS

CITY           SKY/WX    TMP DP  RH WIND       PRES   REMARKS
MOLINE         CLEAR     76  62  62 W12       29.77R
STERLING*      MOCLDY    81  73  78 NW9G17    29.72R HX  85
SAVANNA*       CLEAR     78  67  69 NW8       29.75R HX  80
$$

ILZ003-004-008-010-011-017-018-030600-
NORTH CENTRAL ILLINOIS

CITY           SKY/WX    TMP DP  RH WIND       PRES   REMARKS
ROCKFORD       MOCLDY    77  63  61 N7        29.74R
ROCHELLE*      MOCLDY    78  71  78 NW10      29.74R HX  80
$$

ILZ005-006-012>014-019>023-030600-
NORTHEAST ILLINOIS

CITY           SKY/WX    TMP DP  RH WIND       PRES   REMARKS
CHICAGO-OHARE  CLOUDY    69  66  90 S7        29.73R THUNDER
CHICAGO-MIDWAY TSTM      70  64  81 W6        29.72F
AURORA         CLOUDY    72  65  78 NE9       29.74R THUNDER
LANSING*       CLOUDY    67  63  87 N14       29.76R
JOLIET*        MOCLDY    83  74  75 NW5G16    29.72R THUNDER HX  89
WAUKEGAN       CLOUDY    67  65  93 VRB3      29.72S
DUPAGE AIRPORT MOCLDY    67  64  90 CALM      29.74S
WHEELING       NOT AVBL
ROMEOVILLE*    CLOUDY    69  64  83 N30G43    29.76R
NORTHERLY ISL    N/A     65  63  93 W14         N/A
$$

LMZ740>746-030600-
SOUTHERN LAKE MICHIGAN

STATION/POSITION SKY/WX   TEMP    WIND        PRES    VSBY  WAVE
                          AIR SEA DIR/SP/G                  HT/PER
                          (F)     (DEG/KT/KT) (MB)    (MI)  (FT/S)
HARRISON CRIB              67     330/ 17/ 25   N/A
BURNHAM HARBOR             69     350/ 22/ 28   N/A
CALUMET HARBOR             73      10/ 14/ 25   N/A
BURNS HARBOR               65     300/ 34     1007.8R
MICHIGAN CITY              70     340/ 28/ 37   N/A
MICHIGAN CITY 6N           70 73   10/ 21/ 29   N/A           5/ 4
ST. JOSEPH                 66 73   40/  8/ 14   N/A           6/ 5
$$

ILZ025>027-034>036-040-047-049-050-058-095>099-030600-
WEST-CENTRAL ILLINOIS

CITY           SKY/WX    TMP DP  RH WIND       PRES   REMARKS
QUINCY         CLOUDY    79  54  41 W6        29.79F
MACOMB*        PTCLDY    73  72  94 W7        29.81R
$$

ILZ028>032-037-038-041>044-048-051>054-059>061-030600-
CENTRAL ILLINOIS

CITY           SKY/WX    TMP DP  RH WIND       PRES   REMARKS
DECATUR        PTCLDY    79  68  69 SW10      29.80F HX  81
PEORIA         PTCLDY    81  72  74 W12       29.76R HX  85
LACON*         PTCLDY    80  71  73 W12G20    29.72S HX  84
SPRINGFIELD    MOCLDY    80  70  71 SW8       29.79F HX  83
TAYLORVILLE    NOT AVBL
$$

ILZ033-039-045-046-055>057-062-063-030600-
EAST-CENTRAL ILLINOIS

CITY           SKY/WX    TMP DP  RH WIND       PRES   REMARKS
CHAMPAIGN      MOCLDY    74  71  91 S8        29.80F
DANVILLE*      MOCLDY    76  72  86 SW10      29.77F
MATTOON        PTCLDY    76  71  85 SW7       29.82F
PARIS*         PTCLDY    76  73  88 S7        29.83F
$$

ILZ079-100>102-030600-
SOUTHWEST ILLINOIS

CITY           SKY/WX    TMP DP  RH WIND       PRES   REMARKS
ALTON          CLOUDY    77  68  75 SW7       29.84F
CAHOKIA*       MOCLDY    81  71  71 SW5       29.85S HX  85
SPARTA*        PTCLDY    79  72  79 SW6       29.88R HX  81
$$

ILZ064>066-069>071-074>076-080>082-084>086-088>090-092>094-030600-
SOUTH-CENTRAL ILLINOIS

CITY           SKY/WX    TMP DP  RH WIND       PRES   REMARKS
CARBONDALE     PTCLDY    78  70  76 SW7       29.87S HX  80
MT. VERNON     MOCLDY    77  68  73 SW7       29.88R
SALEM*         MOCLDY    80  72  77 S6        29.86S HX  83
$$

ILZ067-068-072-073-078-083-087-091-030600-
SOUTHEAST ILLINOIS

CITY           SKY/WX    TMP DP  RH WIND       PRES   REMARKS
LAWRENCEVILLE  PTCLDY    74  71  91 S6        29.86R
FLORA*         CLEAR     76  71  84 S6        29.86S
HARRISBURG*    CLEAR     76  73  93 CALM      29.89S
ROBINSON*      PTCLDY    75  71  88 S6        29.85F
CARMI*         PTCLDY    74  68  81 S5        29.87S
$$

ABBREVIATIONS USED IN REMARKS
   TC - TEMPERATURE IN CELSIUS
  WCI - WIND CHILL INDEX
   HX - HEAT INDEX
  VSB - VISIBILITY
$$




USA.gov is the U.S. government's official web portal to all federal, state and local government web resources and services.